This demonstration page uses our WeatherBlox Daily Observations layout. Learn more.

Left ArrowRight Arrow

36.19886, -115.1175

Hourly Observations for January 6, 2022

Temp ( °F °C ) Dew Point ( °F °C ) Humidity (%) Winds ( mph kmh ) Pressure ( in mb ) Visibility ( mi km ) Precip ( " mm )
12:53 am 00:53 Clear 43 6.1 23 -5 45 45 NW 7 11 30.15 1021 10 16 0.00 0.00
1:53 am 01:53 Clear 43 6.1 25 -3.9 49 49 W 5 7 30.15 1021 10 16 0.00 0.00
2:53 am 02:53 Clear 40 4.4 24 -4.4 53 53 NW 6 9 30.15 1021 10 16 0.00 0.00
3:53 am 03:53 Clear 41 5 26 -3.3 55 55 Calm 30.14 1021 10 16 0.00 0.00
4:53 am 04:53 Clear 40 4.4 27 -2.8 60 60 W 6 9 30.15 1021 10 16 0.00 0.00
5:53 am 05:53 Clear 42 5.6 28 -2.2 58 58 NNW 7 11 30.16 1021 10 16 0.00 0.00
6:53 am 06:53 Sunny 41 5 29 -1.7 62 62 NW 3 6 30.17 1022 10 16 0.00 0.00
7:53 am 07:53 Sunny 44 6.7 29 -1.7 55 55 N 5 7 30.17 1022 10 16 0.00 0.00
8:53 am 08:53 Sunny 50 10 30 -1.1 46 46 NNW 3 6 30.16 1021 10 16 0.00 0.00
9:53 am 09:53 Sunny 53 11.7 28 -2.2 38 38 Calm 30.15 1021 10 16 0.00 0.00
10:53 am 10:53 Sunny 54 12.2 26 -3.3 34 34 E 3 6 30.15 1021 10 16 0.00 0.00
11:53 am 11:53 Sunny 57 13.9 25 -3.9 29 29 E 5 7 30.11 1020 10 16 0.00 0.00
12:53 pm 12:53 Sunny 59 15 27 -2.8 29 29 SE 3 6 30.07 1018 10 16 0.00 0.00
1:53 pm 13:53 Sunny 61 16.1 28 -2.2 29 29 SSE 3 6 30.04 1017 10 16 0.00 0.00
2:53 pm 14:53 Sunny 62 16.7 29 -1.7 29 29 Calm 30.02 1017 10 16 0.00 0.00
3:53 pm 15:53 Sunny 62 16.7 29 -1.7 29 29 Calm 30.00 1016 10 16 0.00 0.00
4:53 pm 16:53 Clear 59 15 28 -2.2 31 31 E 3 6 30.01 1016 10 16 0.00 0.00
5:53 pm 17:53 Clear 56 13.3 28 -2.2 34 34 Calm 30.02 1017 10 16 0.00 0.00
6:53 pm 18:53 Clear 53 11.7 30 -1.1 41 41 Calm 30.02 1017 10 16 0.00 0.00
7:53 pm 19:53 Clear 50 10 29 -1.7 44 44 NNW 5 7 30.01 1016 10 16 0.00 0.00
8:53 pm 20:53 Clear 48 8.9 30 -1.1 50 50 WNW 6 9 30.01 1016 10 16 0.00 0.00
9:53 pm 21:53 Clear 47 8.3 31 -0.6 54 54 WNW 6 9 30.01 1016 10 16 0.00 0.00
10:53 pm 22:53 Clear 45 7.2 30 -1.1 56 56 NW 5 7 30.00 1016 10 16 0.00 0.00
11:53 pm 23:53 Clear 44 6.7 30 -1.1 58 58 WNW 6 9 29.99 1016 10 16 0.00 0.00

Powered by AerisWeather